Flag for Germany Weather past 2 weeks in Karlsruhe, Baden-Württemberg, Germany

Now
43 °F

Light rain. Passing clouds.


Feels Like: 35 °F
Forecast: 30 / 50 °F
Wind: 15 mph from Southwest

Location: Karlsruhe - Baden Wurttemberg

Current Time: Apr 2, 2015 at 6:51:35 AM

Latest Report: Apr 2, 2015 at 6:20 AM


Visibility: N/A

Pressure: 30.01 "Hg

Humidity: 71%

Dew point: 34 °F

Location of KarlsruheLocation

Historic Weather in Karlsruhe — Graph

°F

Karlsruhe temperature yesterday

Maximum temperature yesterday: 48 °F (at 12:20 AM)
Minimum temperature yesterday: 36 °F (at 7:50 AM)
Average temperature yesterday: 43 °F

Past Weeks' High & Low Weather Summary

 TemperatureHumidityPressure
High64 °F (Mar 18, 2:50 PM)100% (Mar 18, 7:50 AM)30.27 "Hg (Mar 18, 7:50 AM)
Low30 °F (Mar 24, 5:20 AM)33% (Mar 30, 5:20 PM)29.59 "Hg (Mar 29, 9:20 PM)
Average48 °F66%29.98 "Hg
* Reported Mar 18 5:20 AM — Apr 2 5:50 AM, Karlsruhe, Weather by CustomWeather, © 2015

Note: Actual official high and low records may vary slightly from our data, if they occured in-between our weather recording intervals... More about our weather records

Advertising

Karlsruhe weather history for previous 24 hours

 ConditionsComfort  
Time TempWeatherWind HumidityBarometerVisibility
5:50 AM
Thu, Apr 2
43 °FLight rain. Passing clouds.15 mph71%30.04 "HgN/A
5:20 AM43 °FLight rain. Passing clouds.17 mph66%30.07 "HgN/A
4:50 AM45 °FPassing clouds.16 mph57%30.07 "HgN/A
11:20 PM
Wed, Apr 1
45 °FSprinkles. Clear.14 mph57%30.21 "HgN/A
10:50 PM43 °FSprinkles. Clear.12 mph61%30.21 "HgN/A
10:20 PM43 °FClear.13 mph61%30.21 "Hg10 mi
9:50 PM43 °FClear.13 mph61%30.21 "Hg10 mi
9:20 PM43 °FClear.10 mph57%30.21 "Hg10 mi
8:50 PM45 °FSunny.9 mph49%30.21 "Hg10 mi
8:20 PM46 °FSunny.13 mph46%30.21 "Hg10 mi
7:50 PM46 °FPassing clouds.13 mph46%30.21 "HgN/A
7:20 PM46 °FScattered clouds.12 mph46%30.21 "HgN/A
6:50 PM46 °FSprinkles. Partly sunny.16 mph46%30.21 "HgN/A
6:20 PM46 °FScattered showers. Partly sunny.12 mph43%30.21 "HgN/A
5:50 PM48 °FScattered showers. Partly sunny.15 mph40%30.18 "HgN/A
5:20 PM46 °FScattered showers. Partly sunny.16 mph46%30.21 "HgN/A
4:50 PM46 °FScattered showers. Partly sunny.9 mph46%30.18 "HgN/A
4:20 PM46 °FScattered showers. Partly sunny.17 mph43%30.18 "HgN/A
3:50 PM48 °FScattered showers. Partly sunny.18 mph40%30.18 "HgN/A
3:20 PM46 °FScattered showers. Partly sunny.21 mph46%30.18 "HgN/A
2:50 PM45 °FScattered showers. Broken clouds.12 mph61%30.18 "HgN/A
2:20 PM39 °FRain showers. Partly sunny.12 mph75%30.21 "HgN/A
1:50 PM46 °FScattered showers. Partly sunny.17 mph53%30.18 "HgN/A
1:20 PM45 °FLight rain. Broken clouds.15 mph61%30.18 "HgN/A
12:50 PM45 °FScattered showers. Broken clouds.14 mph61%30.18 "HgN/A
12:20 PM45 °FLight rain. Broken clouds.12 mph49%30.18 "HgN/A
11:50 AM45 °FScattered showers. Broken clouds.13 mph61%30.18 "HgN/A
11:20 AM45 °FScattered showers. Broken clouds.9 mph57%30.18 "HgN/A
10:50 AM43 °FScattered showers. Partly sunny.10 mph57%30.18 "HgN/A
10:20 AM43 °FScattered showers. Partly sunny.12 mph61%30.18 "HgN/A
9:50 AM43 °FScattered showers. Partly sunny.10 mph66%30.15 "HgN/A
9:20 AM43 °FScattered showers. Partly sunny.8 mph71%30.15 "HgN/A
8:50 AM39 °FScattered showers. Scattered clouds.10 mph75%30.15 "HgN/A
8:20 AM37 °FScattered showers. Scattered clouds.9 mph81%30.12 "HgN/A
7:50 AM36 °FScattered showers. Passing clouds.10 mph87%30.12 "HgN/A
7:20 AM37 °FScattered showers. Passing clouds.10 mph75%30.09 "HgN/A
6:50 AM41 °FPassing clouds.10 mph76%30.07 "HgN/A
6:20 AM39 °FPassing clouds.12 mph81%30.07 "HgN/A
Weather by CustomWeather, © 2015

See weather overviewHow to use our weather pages